Starlink 30102

operational
NORAD ID: 57434 Int'l Des: 2023-105 Owner: SPXS Country: US Constellation: starlink
LEOCIRCULAR

Über Starlink 30102

Beschreibung wird geladen...

Live-Position

3D-Globus wird geladen...

Nächste Überflüge

Höhenverlauf

Altitude vs Time

uPlot chart will show altitude changes over time

Zweizeiliger Elementsatz

1 57434U 23105E 25303.17088222 -.00004452 00000-0 -31457-3 0 9997
2 57434 43.0063 251.1555 0001206 297.3485 62.7235 15.02550589125870
Epoch: 30. Okt. 2025 • Age: 18 hours

Aktueller Status

Höhe 558.9 km
Geschwindigkeit 7.59 km/s
Subsatellitenpunkt 24.51°N, 90.47°W
Startdatum 24. Juli 2023
Alter 2.2 years
Typ internet

Technische Details

Klassifizierung Payload
Masse 730.00 kg
Trockenmasse 700.00 kg
Gesamtmasse 730.00 kg
Länge 0.30 m
Durchmesser 4.10 m
Spannweite 29.00 m
Form Box + pan
Hersteller SPXS
Bus-Typ Starlink V2M
Phasenstatus In Orbit
Besitzer/Staat SPXS/US

Große Konstellationen

Loading constellations...